STARLINK-37799, 69317

Orbit data source: Space-Track

STARLINK-37799, 69317 is a payload satellite owned by SpaceX/Seattle (US) in SSO that was launched on Sat, 30 May 2026 UTC via an FALCON 9 launch vehicle from the Air Force Western Test Range (AFWTR). Payload-class satellites include a variety of spacecraft equipped with specific instruments for various scientific and technological missions. These include communications satellites like Starlink; space stations such as the ISS; scientific satellites like the Hubble; Earth observation satellites from companies like Planet Labs, Umbra, and HawkEye 360; GPS; miniature CubeSats for education and research; and military/defense satellites.

Loading next visibility...
Identifier
69317, 2026-119X
Orbit
SSO
Country
Flag of USUS
Related business
Manufacturer
SpaceX/Seattle
Mission
Operational Commercial Communications
Bus & Motor
STARLINK V2MO, Unknown motor
Mass
575 kg wet, ~530 kg dry
Launch date (UTC)
2026-05-30 (3 months ago)
Launch vehicle
FALCON 9
Launch site
Air Force Western Test Range (AFWTR)
Object type
Payload
Rocket body
Debris
Shape & HBR
Box + 1 Pan, 17.7 m
Radar Cross Section
41.120 m², Large (>1 m²)

Expand to show TLE details & history
Last TLE update: 7 hours ago

TLE from 7 hours ago
0 STARLINK-37799
1 69317U 26119X   26237.50182230  .00012134  00000-0  37756-3 0  9998
2 69317  97.2812 262.6773 0000635  61.8739 298.2568 15.33447596 13436
Epoch: 2026-08-25T12:02Z
TLE epoch observation values (Epoch: 2026-08-25T12:02:37.446Z)
Latitude
-0.00002°
Longitude
108.25302°
Altitude
468.442 km
Speed
7.632 km/s
True Right ascension
17h 30m 42s
True Declination
0° 00' 00"
Sunlit
Object was in daylight at epoch
Visualization orbit readout
Latitude
Unknown
Longitude
Unknown
Altitude
Unknown
Speed
Unknown
Apparent Right ascension
Unknown
Apparent Declination
Unknown
Sunlit
N/A
Visualization observer readout
Local Sidereal Time
10:00:39
Azimuth
Unknown
Elevation
Unknown
Doppler factor
Unknown
Orbital elements
Apogee altitude
462.912 km
Perigee altitude
462.044 km
Semi-major axis
6,840.615 km
Eccentricity
0.00006
Inclination
97.2812°
RAAN
262.6773°
Arg. of periapsis
61.8739°
True anomaly
298.25039°
Mean anomaly
298.2568°
Eccentric anomaly
298.2536°
Mean motion
3.83619 °/min
Orbital period
93.84 mins
BSTAR
0.00037756
Loading maneuver chart data...
Computing Atmospheric mass density...
Loading historical data...
Loading historical data...
Loading historical data...
Loading historical data...
Loading historical data...
Loading historical data...
Loading historical data...

Documentation

Showing up to 5 results
|